Orbital Elements at Epoch 2459200.5 (2020-Dec-17.0) TDB
Reference: JPL 23 (heliocentric ecliptic J2000)
Element | Value | Uncertainty (1-sigma) | Units |
e | .04791723222081557 | 3.5599e-08 | |
a | 2.965256554611418 | 1.8195e-08 | au |
q | 2.823169667689807 | 1.1117e-07 | au |
i | 10.6922576254643 | 4.6561e-06 | deg |
node | 71.32495942758479 | 2.9755e-05 | deg |
peri | 43.0769404761455 | 7.213e-05 | deg |
M | 338.0745126158865 | 6.5347e-05 | deg |
tp | 2459314.089606248254 (2021-Apr-09.58960625) | 0.00033876 | TDB |
period | 1865.055838120191 5.11 | 1.7166e-05 4.7e-08 | d yr |
n | .1930237114846104 | 1.7766e-09 | deg/d |
Q | 3.107343441533029 | 1.9066e-08 | au |
|
| | Orbit Determination Parameters
Additional Information
|